Change the Weather History Date:

Thursday, March 28, 2013

  Actual Average (KHTL) Record (KHTL)
Temperature  
Mean Temperature 34 °F 34 °F  
Max Temperature 42 °F 45 °F 80 °F (1946)
Min Temperature 26 °F 23 °F -4 °F (1926)
Degree Days  
Heating Degree Days 31 31  
Month to date heating degree days 1024  
Since 1 July heating degree days 6896  
Cooling Degree Days 0 0  
Month to date cooling degree days 0  
Year to date cooling degree days 0  
Moisture  
Dew Point 23 °F    
Average Humidity 66    
Maximum Humidity 92    
Minimum Humidity 38    
Precipitation  
Precipitation 0.00 in 0.07 in 0.79 in (1985)
Month to date precipitation 1.63  
Year to date precipitation 4.35  
Snow  
Snow 0.00 in 0.30 in 2.50 in (1922)
Month to date snowfall 7.7  
Since 1 July snowfall 62.2  
Snow Depth -    
Sea Level Pressure  
Sea Level Pressure 30.21 in    
Wind  
Wind Speed 7 mph (WNW)    
Max Wind Speed 14 mph    
Max Gust Speed 20 mph    
Visibility 10 miles    
Events      
T = Trace of Precipitation, MM = Missing Value Source: NWS Daily Summary

Daily Weather History Graph

Daily Weather History Graph

Search for Another Location

Airport or City:

Trip Planner

Search our weather history database for the weather conditions in past years. The results will help you decide how hot, cold, wet, or windy it might be!

Date:

Astronomy

Mar. 28, 2013 Rise Set
Actual Time 7:26 AM EDT 8:01 PM EDT
Civil Twilight 6:57 AM EDT 8:31 PM EDT
Nautical Twilight 6:22 AM EDT 9:05 PM EDT
Astronomical Twilight 5:46 AM EDT 9:42 PM EDT
Moon 9:59 PM EDT (3/28) 7:49 AM EDT (3/28)
Length of Visible Light 13h 33m
Length of Day
12h 35m
Full, 98% of the Moon is Illuminated
Mar 28
Full
Apr 3
Last Quarter
Apr 10
New
Apr 18
First Quarter
Apr 25
Full

Hourly Weather History & Observations

Time (EDT) Temp. Windchill Dew Point Humidity Pressure Visibility Wind Dir Wind Speed Gust Speed Precip Events Conditions
12:15 AM 32.0 °F 24.8 °F 26.2 °F 79% 30.18 in 10.0 mi WNW 8.1 mph - N/A   Mostly Cloudy
12:34 AM 32.5 °F 25.5 °F 27.0 °F 80% 30.18 in 10.0 mi WNW 8.1 mph - N/A   Overcast
12:55 AM 32.9 °F 25.3 °F 27.5 °F 81% 30.18 in 10.0 mi WNW 9.2 mph - N/A   Overcast
1:15 AM 32.4 °F 26.9 °F 27.0 °F 80% 30.18 in 10.0 mi WNW 5.8 mph - N/A   Overcast
1:35 AM 31.8 °F 25.4 °F 26.1 °F 79% 30.18 in 10.0 mi WNW 6.9 mph - N/A   Overcast
1:55 AM 31.1 °F 23.7 °F 25.5 °F 80% 30.18 in 10.0 mi West 8.1 mph - N/A   Mostly Cloudy
2:15 AM 31.1 °F 24.5 °F 25.7 °F 80% 30.18 in 10.0 mi West 6.9 mph - N/A   Mostly Cloudy
2:35 AM 29.7 °F 23.7 °F 25.0 °F 83% 30.19 in 10.0 mi West 5.8 mph - N/A   Scattered Clouds
2:55 AM 29.3 °F 24.3 °F 24.8 °F 83% 30.19 in 10.0 mi West 4.6 mph - N/A   Scattered Clouds
3:15 AM 28.4 °F 22.2 °F 25.2 °F 88% 30.18 in 10.0 mi West 5.8 mph - N/A   Scattered Clouds
3:35 AM 28.4 °F 21.2 °F 25.7 °F 90% 30.18 in 10.0 mi West 6.9 mph - N/A   Scattered Clouds
3:55 AM 28.4 °F 22.2 °F 25.7 °F 90% 30.18 in 10.0 mi West 5.8 mph - N/A   Scattered Clouds
4:14 AM 28.4 °F 22.2 °F 25.3 °F 88% 30.18 in 10.0 mi West 5.8 mph - N/A   Mostly Cloudy
4:35 AM 28.8 °F 21.7 °F 24.6 °F 84% 30.18 in 10.0 mi West 6.9 mph - N/A   Overcast
4:55 AM 28.6 °F 20.7 °F 23.9 °F 83% 30.18 in 10.0 mi West 8.1 mph - N/A   Overcast
5:14 AM 29.3 °F 22.3 °F 24.1 °F 81% 30.19 in 10.0 mi West 6.9 mph - N/A   Overcast
5:35 AM 29.8 °F 23.0 °F 24.6 °F 81% 30.19 in 10.0 mi WNW 6.9 mph - N/A   Overcast
5:55 AM 29.7 °F 23.7 °F 24.4 °F 81% 30.19 in 10.0 mi WNW 5.8 mph - N/A   Mostly Cloudy
6:15 AM 28.4 °F 21.2 °F 23.9 °F 83% 30.19 in 10.0 mi WNW 6.9 mph - N/A   Scattered Clouds
6:35 AM 28.4 °F 22.2 °F 24.1 °F 84% 30.19 in 10.0 mi WNW 5.8 mph - N/A   Clear
6:55 AM 28.4 °F 22.2 °F 24.6 °F 86% 30.20 in 10.0 mi West 5.8 mph - N/A   Clear
7:15 AM 28.4 °F 24.6 °F 24.8 °F 86% 30.20 in 10.0 mi West 3.5 mph - N/A   Clear
7:35 AM 28.4 °F 23.3 °F 25.5 °F 89% 30.21 in 10.0 mi West 4.6 mph - N/A   Clear
7:54 AM 28.0 °F 22.8 °F 25.3 °F 90% 30.21 in 10.0 mi West 4.6 mph - N/A   Clear
8:15 AM 26.2 °F 20.7 °F 23.9 °F 91% 30.21 in 10.0 mi West 4.6 mph - N/A   Clear
8:35 AM 28.4 °F 22.2 °F 26.2 °F 92% 30.21 in 10.0 mi West 5.8 mph - N/A   Clear
8:55 AM 28.4 °F 22.2 °F 25.7 °F 90% 30.22 in 10.0 mi West 5.8 mph - N/A   Clear
9:15 AM 28.4 °F 22.2 °F 24.6 °F 86% 30.22 in 10.0 mi West 5.8 mph - N/A   Clear
9:35 AM 33.3 °F 26.4 °F 27.0 °F 78% 30.23 in 10.0 mi WNW 8.1 mph - N/A   Clear
9:54 AM 33.3 °F 27.1 °F 25.7 °F 74% 30.23 in 10.0 mi WNW 6.9 mph - N/A   Clear
10:15 AM 35.8 °F 30.1 °F 26.4 °F 69% 30.23 in 10.0 mi West 6.9 mph - N/A   Scattered Clouds
10:35 AM 35.8 °F 29.4 °F 25.5 °F 66% 30.23 in 10.0 mi West 8.1 mph - N/A   Clear
10:54 AM 36.7 °F 30.5 °F 24.6 °F 62% 30.23 in 10.0 mi WNW 8.1 mph - N/A   Clear
11:15 AM 38.3 °F 34.8 °F 24.6 °F 58% 30.23 in 10.0 mi West 4.6 mph - N/A   Clear
11:35 AM 39.6 °F 33.5 °F 23.5 °F 53% 30.23 in 10.0 mi NW 9.2 mph - N/A   Clear
11:55 AM 39.7 °F 35.6 °F 22.6 °F 50% 30.23 in 10.0 mi West 5.8 mph - N/A   Clear
12:15 PM 41.0 °F 35.2 °F 21.4 °F 46% 30.24 in 10.0 mi WNW 9.2 mph - N/A   Clear
12:35 PM 41.0 °F 33.9 °F 19.2 °F 42% 30.23 in 10.0 mi WNW 12.7 mph - N/A   Clear
12:55 PM 41.4 °F 35.7 °F 19.6 °F 42% 30.23 in 10.0 mi West 9.2 mph - N/A   Clear
1:15 PM 41.2 °F 33.7 °F 19.0 °F 41% 30.22 in 10.0 mi West 13.8 mph 19.6 mph N/A   Clear
1:35 PM 42.1 °F 35.7 °F 18.3 °F 39% 30.23 in 10.0 mi WNW 11.5 mph 18.4 mph N/A   Clear
1:55 PM 41.5 °F 35.0 °F 19.8 °F 42% 30.23 in 10.0 mi NW 11.5 mph 18.4 mph N/A   Clear
2:14 PM 42.1 °F 34.9 °F 18.0 °F 38% 30.22 in 10.0 mi NW 13.8 mph - N/A   Clear
2:35 PM 42.4 °F 37.5 °F 19.2 °F 39% 30.21 in 10.0 mi WNW 8.1 mph - N/A   Clear
2:55 PM 42.1 °F 36.1 °F 19.2 °F 40% 30.21 in 10.0 mi NNW 10.4 mph 18.4 mph N/A   Clear
3:15 PM 42.4 °F 37.0 °F 19.6 °F 40% 30.21 in 10.0 mi WNW 9.2 mph - N/A   Clear
3:35 PM 42.6 °F 35.9 °F 19.8 °F 40% 30.21 in 10.0 mi WNW 12.7 mph 18.4 mph N/A   Clear
3:55 PM 42.3 °F 35.9 °F 20.3 °F 42% 30.21 in 10.0 mi NW 11.5 mph - N/A   Clear
4:14 PM 41.9 °F 34.6 °F 20.5 °F 42% 30.21 in 10.0 mi NW 13.8 mph 18.4 mph N/A   Clear
4:35 PM 41.7 °F 34.4 °F 20.1 °F 42% 30.21 in 10.0 mi NW 13.8 mph 19.6 mph N/A   Clear
4:55 PM 42.4 °F 35.3 °F 20.7 °F 42% 30.21 in 10.0 mi NW 13.8 mph - N/A   Clear
5:14 PM 42.8 °F 37.0 °F 20.7 °F 41% 30.21 in 10.0 mi WNW 10.4 mph 18.4 mph N/A   Clear
5:35 PM 41.7 °F 36.1 °F 21.2 °F 44% 30.21 in 10.0 mi WNW 9.2 mph - N/A   Clear
5:55 PM 41.9 °F 35.4 °F 20.5 °F 42% 30.21 in 10.0 mi West 11.5 mph - N/A   Clear
6:14 PM 42.1 °F 35.7 °F 20.1 °F 42% 30.21 in 10.0 mi NW 11.5 mph - N/A   Clear
6:35 PM 41.4 °F 35.7 °F 21.4 °F 45% 30.21 in 10.0 mi WNW 9.2 mph - N/A   Clear
6:55 PM 41.0 °F 35.2 °F 21.2 °F 45% 30.22 in 10.0 mi WNW 9.2 mph - N/A   Clear
7:15 PM 40.6 °F 34.8 °F 20.7 °F 45% 30.22 in 10.0 mi WNW 9.2 mph - N/A   Clear
7:35 PM 39.6 °F 34.0 °F 19.9 °F 45% 30.23 in 10.0 mi WNW 8.1 mph - N/A   Clear
7:55 PM 38.3 °F 34.8 °F 20.7 °F 49% 30.23 in 10.0 mi West 4.6 mph - N/A   Clear
8:15 PM 37.2 °F 33.6 °F 20.3 °F 50% 30.23 in 10.0 mi West 4.6 mph - N/A   Clear
8:35 PM 35.8 °F 30.9 °F 19.6 °F 52% 30.24 in 10.0 mi West 5.8 mph - N/A   Clear
8:55 PM 35.8 °F 31.9 °F 20.7 °F 54% 30.24 in 10.0 mi West 4.6 mph - N/A   Clear
9:15 PM 34.0 °F 29.8 °F 21.0 °F 59% 30.24 in 10.0 mi WNW 4.6 mph - N/A   Clear
9:35 PM 33.3 °F 30.2 °F 21.0 °F 61% 30.24 in 10.0 mi West 3.5 mph - N/A   Clear
9:55 PM 31.3 °F - 23.0 °F 71% 30.24 in 10.0 mi Calm Calm - N/A   Clear
10:15 PM 29.5 °F - 22.3 °F 75% 30.25 in 10.0 mi Calm Calm - N/A   Clear
10:35 PM 28.4 °F - 21.2 °F 74% 30.25 in 10.0 mi Calm Calm - N/A   Clear
10:55 PM 28.4 °F - 23.7 °F 83% 30.25 in 10.0 mi Calm Calm - N/A   Clear
11:15 PM 28.2 °F - 24.1 °F 84% 30.25 in 10.0 mi Calm Calm - N/A   Clear
11:35 PM 28.4 °F - 22.6 °F 79% 30.24 in 10.0 mi Calm Calm - N/A   Clear
11:55 PM 26.1 °F 21.9 °F 21.7 °F 84% 30.25 in 10.0 mi West 3.5 mph - N/A   Clear